Waupaca, WI

8:00 PM CDT on August 19, 2017 (GMT -0500)
Waupaca Municipal

Weather History for KPCZ - March, 2014

Change the Weather History Date:

Tuesday, March 25, 2014

  Actual Average Record
Temperature  
Mean Temperature 18 °F -  
Max Temperature 23 °F 44 °F 75 °F (2007)
Min Temperature 10 °F 24 °F -2 °F (1971)
Degree Days  
Heating Degree Days 48    
Moisture  
Dew Point 4 °F    
Average Humidity 55    
Maximum Humidity 79    
Minimum Humidity 39    
Precipitation  
Precipitation 0.00 in - - ()
Sea Level Pressure  
Sea Level Pressure 30.10 in    
Wind  
Wind Speed 9 mph (WNW)    
Max Wind Speed 21 mph    
Max Gust Speed 26 mph    
Visibility 10 miles    
Events      
Averages and records for this station are not official NWS values.
T = Trace of Precipitation, MM = Missing Value Source: NWS Daily Summary

Daily Weather History Graph

Daily Weather History Graph

Search for Another Location

Airport or City:

Trip Planner

Search our weather history database for the weather conditions in past years. The results will help you decide how hot, cold, wet, or windy it might be!

Date:

Astronomy

Mar. 25, 2014 Rise Set
Actual Time 6:49 AM CDT 7:14 PM CDT
Civil Twilight 6:20 AM CDT 7:43 PM CDT
Nautical Twilight 5:46 AM CDT 8:18 PM CDT
Astronomical Twilight 5:11 AM CDT 8:53 PM CDT
Moon 3:23 AM CDT (3/25) 1:34 PM CDT (3/25)
Length of Visible Light 13h 22m
Length of Day
12h 24m
Waning Crescent, 32% of the Moon is Illuminated
Mar 25
Waning Crescent
Mar 30
New
Apr 7
First Quarter
Apr 15
Full
Apr 22
Last Quarter

Hourly Weather History & Observations

Time (CDT) Temp. Windchill Dew Point Humidity Pressure Visibility Wind Dir Wind Speed Gust Speed Precip Events Conditions
12:17 AM 21.2 °F 13.6 °F 12.2 °F 68% 30.01 in 10.0 mi West 5.8 mph - N/A   Clear
12:37 AM 19.4 °F 11.5 °F 12.2 °F 74% 30.00 in 10.0 mi West 5.8 mph - N/A   Clear
12:57 AM 19.4 °F 11.5 °F 12.2 °F 74% 30.00 in 10.0 mi West 5.8 mph - N/A   Clear
1:17 AM 19.4 °F 9.5 °F 12.2 °F 74% 30.00 in 10.0 mi West 8.1 mph - N/A   Clear
1:37 AM 17.6 °F 9.3 °F 12.2 °F 79% 30.00 in 10.0 mi West 5.8 mph - N/A   Clear
1:58 AM 17.6 °F 8.2 °F 12.2 °F 79% 30.00 in 10.0 mi West 6.9 mph - N/A   Clear
2:18 AM 17.6 °F 8.2 °F 12.2 °F 79% 29.99 in 10.0 mi West 6.9 mph - N/A   Clear
2:37 AM 17.6 °F 8.2 °F 12.2 °F 79% 29.99 in 10.0 mi West 6.9 mph - N/A   Clear
2:57 AM 17.6 °F 8.2 °F 10.4 °F 73% 29.98 in 10.0 mi West 6.9 mph - N/A   Clear
3:17 AM 17.6 °F 7.3 °F 10.4 °F 73% 29.98 in 10.0 mi West 8.1 mph - N/A   Clear
3:37 AM 17.6 °F 8.2 °F 10.4 °F 73% 29.98 in 10.0 mi West 6.9 mph - N/A   Clear
3:57 AM 17.6 °F 8.2 °F 8.6 °F 68% 29.98 in 10.0 mi WNW 6.9 mph - N/A   Clear
4:17 AM 17.6 °F 8.2 °F 8.6 °F 68% 29.98 in 10.0 mi West 6.9 mph - N/A   Clear
4:37 AM 17.6 °F 8.2 °F 8.6 °F 68% 29.98 in 10.0 mi WNW 6.9 mph - N/A   Scattered Clouds
4:59 AM 17.6 °F 9.3 °F 6.8 °F 63% 29.99 in 10.0 mi WNW 5.8 mph - N/A   Scattered Clouds
5:17 AM 15.8 °F 5.1 °F 6.8 °F 68% 29.99 in 10.0 mi WNW 8.1 mph - N/A   Clear
5:37 AM 17.6 °F 8.2 °F 6.8 °F 63% 30.00 in 10.0 mi West 6.9 mph - N/A   Clear
5:57 AM 15.8 °F 6.1 °F 6.8 °F 68% 30.00 in 10.0 mi WNW 6.9 mph - N/A   Clear
6:17 AM 15.8 °F 2.7 °F 6.8 °F 68% 30.01 in 10.0 mi WNW 11.5 mph 16.1 mph N/A   Clear
6:37 AM 15.8 °F 3.4 °F 5.0 °F 62% 30.03 in 10.0 mi NW 10.4 mph 16.1 mph N/A   Clear
6:57 AM 15.8 °F 5.1 °F 5.0 °F 62% 30.04 in 10.0 mi NW 8.1 mph - N/A   Clear
7:17 AM 15.8 °F 3.4 °F 3.2 °F 58% 30.05 in 10.0 mi NW 10.4 mph - N/A   Clear
7:37 AM 15.8 °F 0.3 °F 1.4 °F 53% 30.06 in 10.0 mi NNW 16.1 mph 21.9 mph N/A   Scattered Clouds
7:57 AM 15.8 °F 2.7 °F 1.4 °F 53% 30.06 in 10.0 mi NW 11.5 mph 19.6 mph N/A   Scattered Clouds
8:17 AM 15.8 °F 4.2 °F -0.4 °F 49% 30.07 in 10.0 mi NNW 9.2 mph 17.3 mph N/A   Clear
8:37 AM 15.8 °F 1.4 °F -0.4 °F 49% 30.08 in 10.0 mi NW 13.8 mph 19.6 mph N/A   Clear
8:59 AM 15.8 °F 0.9 °F -0.4 °F 49% 30.08 in 10.0 mi NNW 15.0 mph 23.0 mph N/A   Clear
9:17 AM 17.6 °F 2.7 °F -0.4 °F 45% 30.09 in 10.0 mi NW 16.1 mph 23.0 mph N/A   Clear
9:37 AM 17.6 °F 3.2 °F 1.4 °F 49% 30.11 in 10.0 mi NW 15.0 mph 21.9 mph N/A   Scattered Clouds
9:57 AM 17.6 °F 3.2 °F 1.4 °F 49% 30.11 in 10.0 mi NW 15.0 mph 20.7 mph N/A   Clear
10:17 AM 17.6 °F 5.7 °F 1.4 °F 49% 30.12 in 10.0 mi WNW 10.4 mph 21.9 mph N/A   Scattered Clouds
10:57 AM 19.4 °F 7.2 °F -0.4 °F 42% 30.13 in 10.0 mi NW 11.5 mph 16.1 mph N/A   Clear
11:17 AM 19.4 °F 5.5 °F 1.4 °F 46% 30.13 in 10.0 mi WNW 15.0 mph 18.4 mph N/A   Scattered Clouds
11:37 AM 19.4 °F 6.0 °F 1.4 °F 46% 30.13 in 10.0 mi WNW 13.8 mph 20.7 mph N/A   Scattered Clouds
11:57 AM 19.4 °F 6.6 °F 1.4 °F 46% 30.13 in 10.0 mi West 12.7 mph 21.9 mph N/A   Clear
12:17 PM 19.4 °F 6.0 °F 1.4 °F 46% 30.13 in 10.0 mi West 13.8 mph 19.6 mph N/A   Scattered Clouds
12:37 PM 19.4 °F 5.5 °F 1.4 °F 46% 30.13 in 10.0 mi WNW 15.0 mph 21.9 mph N/A   Scattered Clouds
12:57 PM 21.2 °F 8.3 °F 1.4 °F 42% 30.13 in 10.0 mi WNW 13.8 mph 20.7 mph N/A   Clear
1:17 PM 21.2 °F 8.3 °F 1.4 °F 42% 30.13 in 10.0 mi NW 13.8 mph 21.9 mph N/A   Clear
1:37 PM 21.2 °F 7.8 °F 1.4 °F 42% 30.13 in 10.0 mi West 15.0 mph 23.0 mph N/A   Clear
1:57 PM 21.2 °F 8.3 °F 1.4 °F 42% 30.13 in 10.0 mi West 13.8 mph 17.3 mph N/A   Clear
2:17 PM 23.0 °F 11.7 °F 3.2 °F 43% 30.12 in 10.0 mi WNW 11.5 mph 19.6 mph N/A   Scattered Clouds
2:37 PM 21.2 °F 6.4 °F 1.4 °F 42% 30.12 in 10.0 mi West 18.4 mph 24.2 mph N/A   Clear
2:57 PM 21.2 °F 8.9 °F 1.4 °F 42% 30.12 in 10.0 mi NW 12.7 mph 23.0 mph N/A   Clear
3:17 PM 21.2 °F 8.3 °F 1.4 °F 42% 30.13 in 10.0 mi West 13.8 mph 23.0 mph N/A   Scattered Clouds
3:37 PM 21.2 °F 7.8 °F 1.4 °F 42% 30.13 in 10.0 mi West 15.0 mph 24.2 mph N/A   Clear
3:57 PM 21.2 °F 6.8 °F 1.4 °F 42% 30.13 in 10.0 mi WNW 17.3 mph 24.2 mph N/A   Clear
4:17 PM 21.2 °F 7.3 °F 1.4 °F 42% 30.13 in 10.0 mi West 16.1 mph 20.7 mph N/A   Clear
4:37 PM 21.2 °F 7.3 °F 1.4 °F 42% 30.13 in 10.0 mi West 16.1 mph 23.0 mph N/A   Scattered Clouds
4:59 PM 21.2 °F 7.3 °F 1.4 °F 42% 30.13 in 10.0 mi West 16.1 mph 21.9 mph N/A   Clear
5:17 PM 21.2 °F 6.8 °F -0.4 °F 39% 30.14 in 10.0 mi West 17.3 mph 21.9 mph N/A   Clear
5:37 PM 21.2 °F 5.6 °F -0.4 °F 39% 30.14 in 10.0 mi West 20.7 mph 26.5 mph N/A   Clear
6:17 PM 19.4 °F 5.5 °F -0.4 °F 42% 30.16 in 10.0 mi West 15.0 mph 21.9 mph N/A   Clear
6:37 PM 19.4 °F 7.2 °F -0.4 °F 42% 30.16 in 10.0 mi West 11.5 mph 20.7 mph N/A   Clear
6:57 PM 19.4 °F 9.5 °F -0.4 °F 42% 30.16 in 10.0 mi West 8.1 mph - N/A   Clear
7:17 PM 17.6 °F 6.4 °F 1.4 °F 49% 30.16 in 10.0 mi West 9.2 mph - N/A   Clear
7:37 PM 17.6 °F 8.2 °F -0.4 °F 45% 30.17 in 10.0 mi West 6.9 mph - N/A   Clear
7:57 PM 17.6 °F 7.3 °F -0.4 °F 45% 30.17 in 10.0 mi West 8.1 mph - N/A   Clear
8:17 PM 17.6 °F 7.3 °F -0.4 °F 45% 30.18 in 10.0 mi West 8.1 mph - N/A   Clear
8:37 PM 17.6 °F 8.2 °F -0.4 °F 45% 30.18 in 10.0 mi West 6.9 mph - N/A   Clear
8:57 PM 15.8 °F 6.1 °F 1.4 °F 53% 30.19 in 10.0 mi West 6.9 mph - N/A   Clear
9:17 PM 15.8 °F 6.1 °F 1.4 °F 53% 30.19 in 10.0 mi West 6.9 mph - N/A   Clear
9:37 PM 15.8 °F 7.2 °F 1.4 °F 53% 30.19 in 10.0 mi West 5.8 mph - N/A   Clear
9:57 PM 15.8 °F 8.6 °F 1.4 °F 53% 30.19 in 10.0 mi WSW 4.6 mph - N/A   Clear
10:17 PM 14.0 °F - 1.4 °F 57% 30.19 in 10.0 mi Calm Calm - N/A   Clear
10:37 PM 14.0 °F 6.5 °F 1.4 °F 57% 30.20 in 10.0 mi SW 4.6 mph - N/A   Clear
10:57 PM 12.2 °F 6.1 °F 1.4 °F 62% 30.20 in 10.0 mi SW 3.5 mph - N/A   Clear
11:17 PM 12.2 °F - 1.4 °F 62% 30.20 in 10.0 mi Calm Calm - N/A   Clear
11:37 PM 12.2 °F - 1.4 °F 62% 30.20 in 10.0 mi Calm Calm - N/A   Clear
11:57 PM 10.4 °F - 1.4 °F 67% 30.19 in 10.0 mi Calm Calm - N/A   Clear